Location: Barales School
(34.7987°N, 106.2561°W)
Time: 18:29:41
(UTC+00:00)

Daily predictions for brighter satellites

Satellite Brightness Start Highest point End
(mag) Time Altitude Azimuth Time Altitude Azimuth Time Altitude Azimuth
Cosmos 2297 Rocket 4.0 12:00:21 11° W 12:02:47 13° NW 12:05:29 10° NNW
STARLINK-29 3.0 12:02:33 10° NW 12:05:46 60° SW 12:08:57 10° SSE
STARLINK-1056 3.9 12:04:30 12° WSW 12:08:11 55° NW 12:12:16 10° NE
Cosmos 494 Rocket 4.1 12:03:24 10° NNW 12:08:31 53° WSW 12:13:36 10° S
ATLAS 5 CENTAUR R/B 4.2 12:05:43 10° NNW 12:11:10 36° NE 12:17:16 10° ESE
Cosmos 1300 Rocket 4.3 12:08:27 10° NNW 12:12:14 31° W 12:16:02 10° SSW
STARLINK-1054 4.0 12:09:17 11° WSW 12:13:11 49° NW 12:17:13 10° NE
SeaSat 1 2.8 12:08:41 10° S 12:13:20 43° WSW 12:18:01 10° NW
Cosmos 1484 Rocket 2.8 12:10:25 10° N 12:14:10 54° WNW 12:17:48 10° SSW
CZ-2C R/B 3.4 12:10:59 10° NNW 12:14:32 23° WNW 12:18:05 10° WSW
Gbstr 26 Del rocket 4.4 12:11:07 10° SSW 12:17:12 52° SE 12:22:07 10° ENE
STARLINK-1062 4.1 12:14:12 10° WSW 12:18:10 45° NW 12:22:08 10° NNE
SKYMED 2 4.0 12:15:58 10° SSE 12:20:15 71° ENE 12:24:35 10° N
Meteor PRIRODA 3.7 12:17:15 10° N 12:20:50 59° WNW 12:24:26 10° SSW
Cosmos 2227 4.2 12:16:32 10° SSW 12:22:08 69° WNW 12:27:45 10° NNE
STARLINK-1053 4.3 12:19:15 10° WSW 12:23:10 41° NW 12:27:05 10° NNE
SJ-12 3.9 12:19:56 10° N 12:24:01 75° WNW 12:28:03 10° SSW
Cosmos 1378 Rocket 4.1 12:20:23 10° SSW 12:24:24 38° W 12:28:28 10° N
Cosmos 1092 Rocket 4.5 12:21:44 10° SSW 12:27:38 40° WNW 12:33:33 10° N
